APG316 RPVA-RPLL

Flight info

Callsign APG316
Flight time 1h 7m
Altitude 32000
Route MALAG5R MALAG W9 AKDAP AKDAP7R
Aircraft A20N/M-SDE2E3FGHIRWXY/LB1

Departure

Time 2026-05-04 00:37
Airport Daniel Z. Romualdez Airport (RPVA)

Arrival

Time 2026-05-04 01:44
Airport Ninoy Aquino International Airport (RPLL)
Time Latitude Longitude Altitude Speed Heading
2026-05-04 00:11 11.22585 125.02649 13 ft 0 kts 308°
2026-05-04 00:33 11.22591 125.02646 17 ft 1 kts 343°
2026-05-04 00:33 11.22575 125.02672 16 ft 6 kts 121°
2026-05-04 00:33 11.22556 125.02743 17 ft 12 kts 114°
2026-05-04 00:34 11.22514 125.02758 17 ft 9 kts 188°
2026-05-04 00:34 11.22373 125.02746 17 ft 32 kts 183°
2026-05-04 00:34 11.22189 125.02736 17 ft 19 kts 182°
2026-05-04 00:34 11.22048 125.02728 18 ft 22 kts 182°
2026-05-04 00:35 11.21893 125.02720 16 ft 21 kts 174°
2026-05-04 00:35 11.21834 125.02736 16 ft 2 kts 216°
2026-05-04 00:35 11.21835 125.02726 16 ft 4 kts 286°
2026-05-04 00:35 11.21876 125.02717 16 ft 0 kts
2026-05-04 00:36 11.21903 125.02719 16 ft 16 kts
2026-05-04 00:36 11.22290 125.02743 18 ft 96 kts
2026-05-04 00:37 11.23179 125.02805 123 ft 146 kts
2026-05-04 00:37 11.24221 125.02883 681 ft 152 kts
2026-05-04 00:37 11.25250 125.02945 1458 ft 152 kts
2026-05-04 00:37 11.26447 125.03030 1843 ft 196 kts
2026-05-04 00:38 11.27932 125.03137 2307 ft 235 kts
2026-05-04 00:38 11.29649 125.03258 3089 ft 256 kts
2026-05-04 00:38 11.31455 125.03378 4088 ft 263 kts
2026-05-04 00:38 11.33300 125.03246 5119 ft 271 kts 348°
2026-05-04 00:39 11.34995 125.02376 6146 ft 279 kts 323°
2026-05-04 00:39 11.36448 125.01041 7155 ft 283 kts 317°
2026-05-04 00:39 11.37833 124.99625 8131 ft 287 kts 316°
2026-05-04 00:39 11.38815 124.98613 8833 ft 290 kts 316°
2026-05-04 00:40 11.40238 124.97154 9887 ft 292 kts 316°
2026-05-04 00:40 11.41681 124.95687 10578 ft 306 kts 316°
2026-05-04 00:40 11.43249 124.94103 11014 ft 327 kts 317°
2026-05-04 00:40 11.44899 124.92441 11615 ft 340 kts 317°
2026-05-04 00:41 11.46600 124.90729 12357 ft 347 kts 317°
2026-05-04 00:41 11.48334 124.88984 13146 ft 353 kts 317°
2026-05-04 00:41 11.50094 124.87214 13922 ft 359 kts 317°
2026-05-04 00:41 11.51881 124.85417 14669 ft 363 kts 317°
2026-05-04 00:42 11.53688 124.83598 15456 ft 366 kts 317°
2026-05-04 00:42 11.55512 124.81763 16268 ft 370 kts 317°
2026-05-04 00:42 11.57353 124.79927 17060 ft 373 kts 319°
2026-05-04 00:42 11.59366 124.78307 17807 ft 375 kts 327°
2026-05-04 00:43 11.61533 124.76813 18492 ft 378 kts 328°
2026-05-04 00:43 11.63748 124.75331 19076 ft 382 kts 328°
2026-05-04 00:43 11.65983 124.73837 19670 ft 386 kts 328°
2026-05-04 00:43 11.68240 124.72325 20238 ft 390 kts 328°
2026-05-04 00:44 11.70522 124.70793 20802 ft 395 kts 328°
2026-05-04 00:44 11.72829 124.69241 21394 ft 399 kts 328°
2026-05-04 00:44 11.75161 124.67672 21992 ft 403 kts 327°
2026-05-04 00:44 11.77504 124.66093 22684 ft 405 kts 327°
2026-05-04 00:45 11.79831 124.64525 23323 ft 408 kts 327°
2026-05-04 00:45 11.82215 124.62918 23858 ft 413 kts 327°
2026-05-04 00:45 11.84615 124.61299 24380 ft 416 kts 327°
2026-05-04 00:45 11.87044 124.59661 24921 ft 419 kts 327°
2026-05-04 00:46 11.89482 124.58016 25477 ft 422 kts 327°
2026-05-04 00:46 11.91937 124.56359 26012 ft 425 kts 327°
2026-05-04 00:46 11.94406 124.54693 26536 ft 428 kts 327°
2026-05-04 00:46 11.96908 124.53004 27011 ft 431 kts 327°
2026-05-04 00:47 11.99417 124.51310 27507 ft 435 kts 327°
2026-05-04 00:47 12.01951 124.49599 27978 ft 438 kts 327°
2026-05-04 00:47 12.04465 124.47901 28470 ft 440 kts 327°
2026-05-04 00:47 12.07028 124.46169 28941 ft 443 kts 327°
2026-05-04 00:48 12.09608 124.44426 29370 ft 447 kts 327°
2026-05-04 00:48 12.12208 124.42669 29800 ft 451 kts 327°
2026-05-04 00:48 12.14836 124.40893 30204 ft 454 kts 327°
2026-05-04 00:48 12.17468 124.39113 30699 ft 453 kts 327°
2026-05-04 00:49 12.20099 124.37333 31178 ft 453 kts 327°
2026-05-04 00:49 12.22731 124.35552 31623 ft 454 kts 327°
2026-05-04 00:49 12.25324 124.33797 31899 ft 453 kts 326°
2026-05-04 00:50 12.30563 124.30249 31956 ft 452 kts 326°
2026-05-04 00:50 12.35811 124.26695 31955 ft 452 kts 326°
2026-05-04 00:51 12.40933 124.22969 31957 ft 451 kts 323°
2026-05-04 00:51 12.45865 124.19081 31956 ft 450 kts 322°
2026-05-04 00:52 12.50799 124.15166 31954 ft 449 kts 322°
2026-05-04 00:52 12.55747 124.11275 31955 ft 449 kts 322°
2026-05-04 00:53 12.60724 124.07382 31958 ft 450 kts 322°
2026-05-04 00:53 12.65668 124.03518 31958 ft 451 kts 322°
2026-05-04 00:54 12.70641 123.99629 31958 ft 450 kts 322°
2026-05-04 00:54 12.75609 123.95741 31961 ft 449 kts 322°
2026-05-04 00:55 12.80567 123.91859 31959 ft 449 kts 322°
2026-05-04 00:55 12.85521 123.87977 31963 ft 448 kts 321°
2026-05-04 00:56 12.90451 123.84111 31962 ft 449 kts 321°
2026-05-04 00:56 12.95412 123.80220 31963 ft 449 kts 321°
2026-05-04 00:57 13.00379 123.76321 31962 ft 449 kts 321°
2026-05-04 00:57 13.05342 123.72425 31963 ft 449 kts 321°
2026-05-04 00:58 13.10272 123.68553 31969 ft 449 kts 322°
2026-05-04 00:58 13.15119 123.64538 31969 ft 447 kts 319°
2026-05-04 00:59 13.19852 123.60400 31968 ft 448 kts 318°
2026-05-04 00:59 13.24585 123.56245 31968 ft 448 kts 318°
2026-05-04 01:00 13.29300 123.52131 31972 ft 448 kts 318°
2026-05-04 01:00 13.34054 123.47999 31973 ft 448 kts 319°
2026-05-04 01:01 13.38810 123.43865 31970 ft 448 kts 319°
2026-05-04 01:01 13.43532 123.39759 31974 ft 448 kts 319°
2026-05-04 01:02 13.48272 123.35633 31970 ft 446 kts 318°
2026-05-04 01:02 13.52994 123.31522 31971 ft 443 kts 318°
2026-05-04 01:03 13.57473 123.27195 31971 ft 441 kts 308°
2026-05-04 01:03 13.60691 123.21873 31968 ft 438 kts 296°
2026-05-04 01:04 13.63412 123.16307 31968 ft 439 kts 294°
2026-05-04 01:04 13.66053 123.10671 31966 ft 439 kts 295°
2026-05-04 01:05 13.68710 123.05028 31970 ft 438 kts 295°
2026-05-04 01:05 13.71383 122.99403 31968 ft 437 kts 295°
2026-05-04 01:06 13.74041 122.93826 31970 ft 437 kts 295°
2026-05-04 01:06 13.76721 122.88201 31974 ft 438 kts 295°
2026-05-04 01:07 13.79404 122.82564 31968 ft 439 kts 295°
2026-05-04 01:07 13.82087 122.76922 31971 ft 439 kts 295°
2026-05-04 01:08 13.84756 122.71302 31974 ft 439 kts 295°
2026-05-04 01:08 13.87437 122.65653 31976 ft 440 kts 295°
2026-05-04 01:09 13.90110 122.60019 31973 ft 437 kts 295°
2026-05-04 01:09 13.92774 122.54399 31971 ft 437 kts 294°
2026-05-04 01:10 13.95423 122.48806 31971 ft 437 kts 295°
2026-05-04 01:10 13.98085 122.43181 31970 ft 437 kts 294°
2026-05-04 01:11 14.00747 122.37555 31970 ft 437 kts 294°
2026-05-04 01:11 14.03407 122.31927 31971 ft 437 kts 294°
2026-05-04 01:12 14.06054 122.26325 31968 ft 438 kts 294°
2026-05-04 01:12 14.08714 122.20688 31972 ft 438 kts 294°
2026-05-04 01:13 14.11376 122.15045 31975 ft 438 kts 294°
2026-05-04 01:13 14.14033 122.09409 31975 ft 438 kts 294°
2026-05-04 01:14 14.16694 122.03760 31976 ft 438 kts 294°
2026-05-04 01:14 14.19333 121.98152 31975 ft 438 kts 294°
2026-05-04 01:15 14.21979 121.92503 31981 ft 432 kts 293°
2026-05-04 01:15 14.23201 121.89721 31984 ft 420 kts 292°
2026-05-04 01:15 14.24371 121.86994 31982 ft 415 kts 292°
2026-05-04 01:16 14.26692 121.81567 31985 ft 414 kts 292°
2026-05-04 01:16 14.29013 121.76146 31980 ft 412 kts 292°
2026-05-04 01:17 14.31314 121.70775 31984 ft 411 kts 291°
2026-05-04 01:17 14.33617 121.65393 31988 ft 411 kts 292°
2026-05-04 01:18 14.35927 121.59995 31911 ft 411 kts 292°
2026-05-04 01:18 14.37078 121.57303 31501 ft 410 kts 292°
2026-05-04 01:18 14.38226 121.54617 31003 ft 409 kts 292°
2026-05-04 01:18 14.39372 121.51936 30490 ft 408 kts 292°
2026-05-04 01:19 14.40515 121.49261 29967 ft 406 kts 292°
2026-05-04 01:19 14.41635 121.46638 29444 ft 404 kts 292°
2026-05-04 01:19 14.42764 121.43991 28935 ft 402 kts 292°
2026-05-04 01:19 14.43885 121.41364 28437 ft 399 kts 292°
2026-05-04 01:20 14.44999 121.38753 27951 ft 397 kts 292°
2026-05-04 01:20 14.46107 121.36154 27460 ft 395 kts 292°
2026-05-04 01:20 14.47203 121.33582 27230 ft 385 kts 292°
2026-05-04 01:20 14.48224 121.31079 27122 ft 372 kts 287°
2026-05-04 01:21 14.48690 121.28519 26914 ft 359 kts 268°
2026-05-04 01:21 14.48284 121.26048 26449 ft 354 kts 248°
2026-05-04 01:21 14.47195 121.23743 25992 ft 353 kts 240°
2026-05-04 01:21 14.45986 121.21577 25530 ft 354 kts 239°
2026-05-04 01:22 14.44740 121.19384 25138 ft 352 kts 239°
2026-05-04 01:22 14.43512 121.17211 24760 ft 350 kts 239°
2026-05-04 01:22 14.42293 121.15039 24358 ft 349 kts 239°
2026-05-04 01:22 14.41086 121.12878 23982 ft 347 kts 239°
2026-05-04 01:23 14.39886 121.10723 23594 ft 346 kts 239°
2026-05-04 01:23 14.38691 121.08574 23166 ft 344 kts 238°
2026-05-04 01:23 14.37501 121.06436 22706 ft 343 kts 238°
2026-05-04 01:23 14.36332 121.04335 22230 ft 342 kts 238°
2026-05-04 01:24 14.35154 121.02216 21837 ft 340 kts 239°
2026-05-04 01:24 14.33980 121.00106 21393 ft 339 kts 238°
2026-05-04 01:24 14.32813 120.98008 20989 ft 336 kts 239°
2026-05-04 01:24 14.31649 120.95916 20513 ft 336 kts 238°
2026-05-04 01:25 14.30488 120.93830 20116 ft 334 kts 238°
2026-05-04 01:25 14.29346 120.91777 19903 ft 325 kts 239°
2026-05-04 01:25 14.28242 120.89794 19778 ft 314 kts 238°
2026-05-04 01:25 14.27165 120.87855 19422 ft 313 kts 239°
2026-05-04 01:26 14.26080 120.85904 18651 ft 322 kts 239°
2026-05-04 01:26 14.24947 120.83865 17639 ft 335 kts 239°
2026-05-04 01:26 14.23770 120.81748 16512 ft 346 kts 239°
2026-05-04 01:26 14.22553 120.79558 15321 ft 358 kts 239°
2026-05-04 01:27 14.21298 120.77300 14134 ft 367 kts 239°
2026-05-04 01:27 14.20005 120.74994 12763 ft 377 kts 239°
2026-05-04 01:27 14.18674 120.72638 11323 ft 384 kts 239°
2026-05-04 01:27 14.17307 120.70222 10076 ft 395 kts 239°
2026-05-04 01:28 14.15943 120.67813 9616 ft 379 kts 240°
2026-05-04 01:28 14.14686 120.65592 9382 ft 349 kts 240°
2026-05-04 01:28 14.13511 120.63517 9149 ft 322 kts 240°
2026-05-04 01:28 14.12420 120.61591 8907 ft 302 kts 240°
2026-05-04 01:29 14.11500 120.59675 8205 ft 300 kts 253°
2026-05-04 01:29 14.11410 120.57521 7156 ft 308 kts 285°
2026-05-04 01:29 14.12382 120.55553 5955 ft 314 kts 315°
2026-05-04 01:29 14.14159 120.54258 4837 ft 314 kts 337°
2026-05-04 01:30 14.16094 120.53325 4375 ft 296 kts 339°
2026-05-04 01:30 14.17873 120.52442 4264 ft 274 kts 338°
2026-05-04 01:30 14.19547 120.51645 4155 ft 256 kts 346°
2026-05-04 01:30 14.21230 120.51431 4307 ft 250 kts 10°
2026-05-04 01:31 14.22872 120.52123 4701 ft 259 kts 40°
2026-05-04 01:31 14.24007 120.53502 4948 ft 256 kts 58°
2026-05-04 01:31 14.24909 120.55086 4996 ft 255 kts 62°
2026-05-04 01:31 14.25731 120.56627 5014 ft 238 kts 62°
2026-05-04 01:32 14.26525 120.58106 4996 ft 235 kts 62°
2026-05-04 01:32 14.27345 120.59544 5001 ft 225 kts 53°
2026-05-04 01:32 14.28315 120.60711 5000 ft 206 kts 62°
2026-05-04 01:32 14.28966 120.62014 4986 ft 203 kts 62°
2026-05-04 01:33 14.29683 120.63265 4988 ft 203 kts 59°
2026-05-04 01:33 14.30442 120.64493 4986 ft 203 kts 58°
2026-05-04 01:33 14.31205 120.65692 4999 ft 204 kts 58°
2026-05-04 01:33 14.31993 120.66953 4984 ft 204 kts 59°
2026-05-04 01:34 14.32689 120.68117 5001 ft 179 kts 60°
2026-05-04 01:34 14.33296 120.69189 4998 ft 169 kts 62°
2026-05-04 01:34 14.33852 120.70222 4972 ft 156 kts 63°
2026-05-04 01:34 14.34306 120.71163 4960 ft 138 kts 66°
2026-05-04 01:35 14.34723 120.72031 4953 ft 133 kts 63°
2026-05-04 01:35 14.35170 120.72849 4957 ft 132 kts 62°
2026-05-04 01:35 14.35624 120.73674 4956 ft 132 kts 63°
2026-05-04 01:35 14.36066 120.74494 4807 ft 133 kts 63°
2026-05-04 01:36 14.36516 120.75331 4504 ft 133 kts 63°
2026-05-04 01:36 14.36963 120.76162 4193 ft 132 kts 63°
2026-05-04 01:36 14.37423 120.77014 3782 ft 141 kts 63°
2026-05-04 01:36 14.37923 120.77938 3331 ft 154 kts 63°
2026-05-04 01:37 14.38467 120.78939 2917 ft 162 kts 63°
2026-05-04 01:37 14.39008 120.79900 2863 ft 144 kts 64°
2026-05-04 01:37 14.39463 120.80743 2963 ft 130 kts 63°
2026-05-04 01:37 14.39893 120.81552 2994 ft 128 kts 63°
2026-05-04 01:38 14.40309 120.82344 2821 ft 127 kts 63°
2026-05-04 01:38 14.40730 120.83148 2530 ft 129 kts 63°
2026-05-04 01:38 14.41159 120.83958 2256 ft 127 kts 63°
2026-05-04 01:38 14.41579 120.84744 1984 ft 124 kts 63°
2026-05-04 01:39 14.41997 120.85522 1785 ft 124 kts 61°
2026-05-04 01:39 14.42422 120.86307 1718 ft 125 kts 64°
2026-05-04 01:39 14.42842 120.87084 1688 ft 124 kts 63°
2026-05-04 01:39 14.43257 120.87854 1740 ft 118 kts 62°
2026-05-04 01:40 14.43643 120.88574 1719 ft 116 kts 62°
2026-05-04 01:40 14.44042 120.89312 1692 ft 119 kts 60°
2026-05-04 01:40 14.44430 120.90078 1656 ft 121 kts 63°
2026-05-04 01:40 14.44843 120.90837 1675 ft 121 kts 60°
2026-05-04 01:41 14.45262 120.91589 1681 ft 121 kts 60°
2026-05-04 01:41 14.45679 120.92353 1692 ft 122 kts 62°
2026-05-04 01:41 14.46094 120.93126 1575 ft 124 kts 61°
2026-05-04 01:41 14.46511 120.93903 1441 ft 123 kts 62°
2026-05-04 01:42 14.46916 120.94682 1332 ft 124 kts 65°
2026-05-04 01:42 14.47278 120.95487 1190 ft 123 kts 65°
2026-05-04 01:42 14.47678 120.96254 1000 ft 123 kts 59°
2026-05-04 01:42 14.48117 120.97006 827 ft 123 kts 60°
2026-05-04 01:43 14.48549 120.97765 662 ft 123 kts 62°
2026-05-04 01:43 14.48965 120.98534 485 ft 123 kts 62°
2026-05-04 01:43 14.49396 120.99300 316 ft 123 kts 62°
2026-05-04 01:43 14.49821 121.00067 127 ft 123 kts 60°
2026-05-04 01:44 14.50215 121.00797 69 ft 102 kts 60°
2026-05-04 01:44 14.50492 121.01281 69 ft 63 kts 60°
2026-05-04 01:44 14.50696 121.01649 67 ft 52 kts 51°
2026-05-04 01:44 14.50872 121.01786 62 ft 15 kts 354°
2026-05-04 01:45 14.50942 121.01731 70 ft 13 kts 311°
2026-05-04 01:45 14.50947 121.01667 67 ft 8 kts 238°
2026-05-04 01:45 14.50859 121.01508 63 ft 11 kts 241°
2026-05-04 01:46 14.50840 121.01475 64 ft 7 kts 247°
2026-05-04 01:46 14.50870 121.01436 66 ft 10 kts 329°
2026-05-04 01:46 14.50908 121.01413 72 ft 1 kts 330°
2026-05-04 01:46 14.50910 121.01412 72 ft 0 kts 330°